Harrison, AR

2:11 AM CDT on May 23, 2017 (GMT -0500)
Boone County

Weather History for KHRO - January, 2014

Change the Weather History Date:

Wednesday, January 8, 2014

  Actual Average Record
Temperature  
Mean Temperature 29 °F 36 °F  
Max Temperature 32 °F 46 °F 72 °F (1939)
Min Temperature 26 °F 26 °F -5 °F (1970)
Degree Days  
Heating Degree Days 36 29  
Month to date heating degree days 325 232  
Since 1 July heating degree days 2016 1831  
Cooling Degree Days 0 0  
Month to date cooling degree days 0 0  
Year to date cooling degree days 0 0  
Moisture  
Dew Point 24 °F    
Average Humidity 74    
Maximum Humidity 100    
Minimum Humidity 47    
Precipitation  
Precipitation T in 0.08 in 2.00 in (1920)
Month to date precipitation 0.40 0.67  
Year to date precipitation 0.40 0.67  
Snow  
Snow T in 0.10 in 5.00 in (1944)
Month to date snowfall 1.0 0.8  
Since 1 July snowfall 10.0 2.6  
Snow Depth 0.00 in    
Sea Level Pressure  
Sea Level Pressure 30.29 in    
Wind  
Wind Speed 8 mph (SE)    
Max Wind Speed 15 mph    
Max Gust Speed 18 mph    
Visibility 5 miles    
Events Rain    
T = Trace of Precipitation, MM = Missing Value Source: NWS Daily Summary

Daily Weather History Graph

Daily Weather History Graph

Search for Another Location

Airport or City:

Trip Planner

Search our weather history database for the weather conditions in past years. The results will help you decide how hot, cold, wet, or windy it might be!

Date:

Astronomy

Jan. 08, 2014 Rise Set
Actual Time 7:24 AM CST 5:14 PM CST
Civil Twilight 6:55 AM CST 5:43 PM CST
Nautical Twilight 6:24 AM CST 6:14 PM CST
Astronomical Twilight 5:52 AM CST 6:46 PM CST
Moon 12:02 PM CST (1/8) 12:36 AM CST (1/8)
Length of Visible Light 10h 47m
Length of Day
9h 50m
First Quarter, 56% of the Moon is Illuminated
Jan 8
First Quarter
Jan 15
Full
Jan 23
Last Quarter
Jan 30
New
Feb 6
First Quarter

Hourly Weather History & Observations

Time (CST) Temp. Windchill Dew Point Humidity Pressure Visibility Wind Dir Wind Speed Gust Speed Precip Events Conditions
12:53 AM 30.0 °F 24.1 °F 12.9 °F 49% 30.27 in 10.0 mi East 5.8 mph - N/A   Clear
1:53 AM 28.9 °F - 12.9 °F 51% 30.28 in 10.0 mi Calm Calm - N/A   Clear
2:53 AM 28.9 °F 25.2 °F 12.0 °F 49% 30.31 in 10.0 mi SE 3.5 mph - N/A   Clear
3:53 AM 26.1 °F 18.4 °F 14.0 °F 60% 30.30 in 10.0 mi SE 6.9 mph - N/A   Clear
4:53 AM 27.0 °F - 14.0 °F 58% 30.30 in 10.0 mi Calm Calm - N/A   Clear
5:53 AM 27.0 °F 18.0 °F 12.9 °F 56% 30.30 in 10.0 mi SSE 9.2 mph - N/A   Clear
6:53 AM 26.1 °F 18.4 °F 12.9 °F 58% 30.31 in 10.0 mi SE 6.9 mph - N/A   Clear
7:53 AM 27.0 °F 18.7 °F 12.9 °F 56% 30.31 in 10.0 mi SE 8.1 mph - N/A   Clear
8:53 AM 30.0 °F 22.4 °F 14.0 °F 51% 30.33 in 10.0 mi SE 8.1 mph - N/A   Clear
9:53 AM 30.9 °F 25.2 °F 14.0 °F 50% 30.35 in 10.0 mi ESE 5.8 mph - N/A   Overcast
10:53 AM 32.0 °F 23.6 °F 17.1 °F 54% 30.35 in 10.0 mi SSE 10.4 mph - N/A   Overcast
11:02 AM 32.0 °F 24.2 °F 19.4 °F 60% 30.31 in 10.0 mi SSE 9.2 mph - N/A   Overcast
11:53 AM 32.0 °F 23.6 °F 19.9 °F 61% 30.32 in 10.0 mi SSE 10.4 mph - N/A   Overcast
12:53 PM 30.9 °F 22.2 °F 25.0 °F 79% 30.30 in 8.0 mi SSE 10.4 mph - N/A   Overcast
1:43 PM 30.2 °F 22.6 °F 26.6 °F 86% 30.26 in 6.0 mi SSE 8.1 mph - 0.00 in   Overcast
1:53 PM 30.9 °F 23.5 °F 28.0 °F 89% 30.30 in 6.0 mi SE 8.1 mph - 0.00 in   Overcast
2:02 PM 30.2 °F 23.4 °F 28.4 °F 93% 30.25 in 5.0 mi SE 6.9 mph - 0.00 in   Overcast
2:08 PM 30.2 °F 22.6 °F 28.4 °F 93% 30.25 in 4.0 mi SE 8.1 mph - 0.00 in Rain Light Freezing Rain
2:18 PM 30.2 °F 24.3 °F 28.4 °F 93% 30.25 in 4.0 mi ESE 5.8 mph - 0.00 in Rain Light Freezing Rain
2:27 PM 30.2 °F 24.3 °F 28.4 °F 93% 30.25 in 4.0 mi ESE 5.8 mph - 0.00 in Rain Light Freezing Rain
2:34 PM 30.2 °F 25.4 °F 28.4 °F 93% 30.25 in 3.0 mi ESE 4.6 mph - 0.00 in Rain Light Freezing Rain
2:53 PM 30.9 °F 25.2 °F 28.9 °F 92% 30.29 in 2.5 mi ESE 5.8 mph - 0.00 in Rain Light Freezing Rain
3:11 PM 30.2 °F 25.4 °F 28.4 °F 93% 30.25 in 2.0 mi ESE 4.6 mph - 0.00 in Rain Light Freezing Rain
3:15 PM 30.2 °F 25.4 °F 28.4 °F 93% 30.26 in 1.8 mi ESE 4.6 mph - 0.00 in Rain Light Freezing Rain
3:48 PM 30.2 °F 23.4 °F 30.2 °F 100% 30.26 in 1.2 mi ESE 6.9 mph - 0.00 in Rain Light Freezing Rain
3:53 PM 30.9 °F 25.2 °F 30.0 °F 96% 30.29 in 1.5 mi East 5.8 mph - 0.00 in Rain Light Freezing Rain
4:53 PM 30.9 °F 24.3 °F 28.9 °F 92% 30.30 in 1.5 mi East 6.9 mph - 0.00 in Rain Light Freezing Rain
5:10 PM 30.2 °F 23.4 °F 30.2 °F 100% 30.26 in 2.0 mi East 6.9 mph - 0.00 in Rain Light Freezing Rain
5:23 PM 30.2 °F 24.3 °F 28.4 °F 93% 30.26 in 3.0 mi East 5.8 mph - 0.00 in Rain Light Freezing Rain
5:53 PM 30.0 °F 23.2 °F 30.0 °F 100% 30.30 in 2.0 mi East 6.9 mph - 0.00 in Rain Light Freezing Rain
6:12 PM 30.2 °F 21.9 °F 28.4 °F 93% 30.26 in 3.0 mi ESE 9.2 mph - 0.00 in Rain Light Freezing Rain
6:53 PM 30.0 °F 22.4 °F 28.9 °F 96% 30.31 in 2.5 mi ESE 8.1 mph - 0.00 in Rain Light Freezing Rain
7:24 PM 30.2 °F 22.6 °F 30.2 °F 100% 30.28 in 3.0 mi ESE 8.1 mph - 0.00 in Rain Light Freezing Rain
7:43 PM 30.2 °F 21.9 °F 28.4 °F 93% 30.28 in 2.5 mi ESE 9.2 mph - 0.00 in Rain Light Freezing Rain
7:53 PM 30.9 °F 23.5 °F 30.0 °F 96% 30.33 in 3.0 mi ESE 8.1 mph - 0.00 in Rain Light Freezing Rain
8:53 PM 30.0 °F 21.1 °F 28.9 °F 96% 30.35 in 4.0 mi SE 10.4 mph - 0.00 in Rain Light Freezing Rain
9:53 PM 28.9 °F 19.2 °F 28.0 °F 96% 30.34 in 4.0 mi SE 11.5 mph - 0.00 in Rain Light Freezing Rain
10:16 PM 28.4 °F 19.7 °F 28.4 °F 100% 30.30 in 2.5 mi SE 9.2 mph - 0.00 in Rain Light Freezing Rain
10:46 PM 28.4 °F 18.5 °F 28.4 °F 100% 30.29 in 3.0 mi SE 11.5 mph - 0.00 in Rain Light Freezing Rain
10:53 PM 28.9 °F 18.2 °F 28.0 °F 96% 30.33 in 4.0 mi SE 13.8 mph - 0.00 in Rain Light Freezing Rain
11:53 PM 28.9 °F 18.2 °F 28.0 °F 96% 30.32 in 4.0 mi SE 13.8 mph - 0.00 in Rain Light Freezing Rain